Regional Weather Roundup
Issued by NWS

Home | Current Version | Previous Version | Graphics & Text | Print | Product List | Glossary On
Versions: 1 2 3 4 5 6 7 8 9 10 11 12 13 14 15 16 17 18 19 20 21 22 23 24 25 26 27 28 29 30 31 32 33 34 35 36 37 38 39 40 41 42 43 44 45 46 47 48 49 50
000
ASUS45 KABQ 201710
RWRNM
NEW MEXICO REGIONAL WEATHER ROUNDUP
NATIONAL WEATHER SERVICE ALBUQUERQUE NM
1000 AM MST FRI JAN 20 2017

NOTE: "FAIR" MEANS FEW OR NO CLOUDS BELOW 12,000 FEET AGL WITH NO
       SIGNIFICANT WEATHER OR OBSTRUCTIONS TO VISION.

      THIS PRODUCT IS RELEASED AS TWO VERSIONS.  ONE VERSION NEAR
      THE TOP OF THE HOUR CONTAINING PRELIMINARY DATA FROM ALBUQUERQUE
      AND OTHER STATIONS.  A FINAL VERSION WITH ADDITIONAL DATA IS
      ISSUED ABOUT 10 MINUTES AFTER THE HOUR.

NMZ501-503-504-510>518-201800-
NORTHWEST PLATEAU/NORTHCENTRAL MOUNTAINS

CITY           SKY/WX    TMP DP  RH WIND       PRES   REMARKS
FARMINGTON     CLOUDY    33  28  81 CALM      29.72R
LOS ALAMOS     CLOUDY    33  21  62 W15G28    29.69S WCI  23
SANTA FE       FAIR      37  23  56 W23G32    29.69S WCI  26
TAOS           CLOUDY    28  16  59 W12       29.66R WCI  18
ANGEL FIRE     LGT SNOW  24  18  77 E6        29.61R WCI  17

$$
NMZ402-403-502-505>509-201800-
WESTCENTRAL MOUNTAINS/SOUTHWEST MOUNTAINS

CITY           SKY/WX    TMP DP  RH WIND       PRES   REMARKS
GALLUP         PTSUNNY   32  27  81 SW16      29.75F WCI  21
GRANTS         CLOUDY    33  26  77 N9        29.78S WCI  25
SILVER CITY    CLOUDY    41  32  69 W8        29.86S

$$
NMZ407-409-411-412-201800-
SOUTHERN DESERTS

CITY           SKY/WX    TMP DP  RH WIND       PRES   REMARKS
DEMING         FAIR      47  31  53 W22G29    29.86S
LAS CRUCES     CLOUDY    47  29  47 SW14G23   29.88S
HOLLOMAN AFB   CLOUDY    49  31  51 S9        29.88R
ALAMOGORDO     FAIR      48  28  46 S12       29.86R
T OR C         FAIR      45  28  51 S7        29.79R

$$
NMZ519>523-201800-
CENTRAL VALLEYS/CENTRAL HIGHLANDS

CITY           SKY/WX    TMP DP  RH WIND       PRES   REMARKS
ALBUQUERQUE    PTSUNNY   39  30  70 SW8       29.77R WCI  33
DOUBLE EAGLE   MOSUNNY   37  27  65 W16       29.75R WCI  28
MORIARTY ARPT  PTSUNNY   37  25  62 W15G24    29.75S WCI  27
CLINES CORNERS FAIR      31  23  72 W26G38    29.69S WCI  17
BELEN          PTSUNNY   40  30  65 SW9       29.78S WCI  34
SOCORRO        LGT RAIN  41  33  72 CALM      29.79R

$$
NMZ524>526-539-540-201800-
SOUTHCENTRAL MOUNTAINS

CITY           SKY/WX    TMP DP  RH WIND       PRES   REMARKS
RUIDOSO        FAIR      37  27  65 SW26G36   29.78S WCI  26

$$
NMZ527>531-201800-
NORTHEAST HIGHLANDS/NORTHEAST PLAINS

CITY           SKY/WX    TMP DP  RH WIND       PRES   REMARKS
LAS VEGAS      FAIR      33  22  63 SW29G38   29.62R WCI  19
RATON          FAIR      40  12  32 SW14      29.48F WCI  32
CLAYTON        FAIR      47  25  42 W25G37    29.49S

$$
NMZ532>537-201800-
EASTCENTRAL PLAINS

CITY           SKY/WX    TMP DP  RH WIND       PRES   REMARKS
TUCUMCARI      FAIR      49  30  48 W26G40    29.61S
CANNON AFB     NOT AVBL
CLOVIS AIRPORT FAIR      48  32  53 W31G38    29.67R

$$
NMZ028-029-538-201800-
SOUTHEAST PLAINS

CITY           SKY/WX    TMP DP  RH WIND       PRES   REMARKS
ROSWELL        FAIR      57  27  31 SW18      29.73R
ARTESIA        FAIR      55  30  38 W28G37    29.75R
CARLSBAD       FAIR      59  26  28 W22G35    29.77R
HOBBS          SUNNY     55  27  33 SW22G29   29.77R


$$



USA.gov is the U.S. government's official web portal to all federal, state and local government web resources and services.